FW2111 Weather Reports


Display with metric or nautical units.
time (UTC)temp
F
wind
direction
speed
MPH
gust
MPH
rain 1hr
in
rain 24hr
in
rain mn
in
humidity
%
barometer
mb
20260906202948 68 73 7.0 13.0 0.00 0.00 0.00 71 1020.8
20260906202446 68 106 7.0 14.0 0.00 0.00 0.00 72 1020.8
20260906201947 68 93 7.0 14.0 0.00 0.00 0.00 71 1020.8
20260906201445 68 101 6.0 12.0 0.00 0.00 0.00 71 1020.9
20260906200919 69 97 6.0 13.0 0.00 0.00 0.00 72 1020.9
20260906200353 68 89 6.0 13.0 0.00 0.00 0.00 71 1020.8
20260906195825 69 113 4.0 12.0 0.00 0.00 0.00 70 1020.6
20260906195323 69 127 4.0 12.0 0.00 0.00 0.00 71 1020.6
20260906194755 69 76 5.0 13.0 0.00 0.00 0.00 71 1020.8
20260906194251 69 87 6.0 13.0 0.00 0.00 0.00 71 1020.7
20260906193724 69 92 6.0 15.0 0.00 0.00 0.00 70 1020.8
20260906193220 69 111 6.0 15.0 0.00 0.00 0.00 70 1020.8
20260906192655 69 109 5.0 11.0 0.00 0.00 0.00 71 1020.8
20260906192133 69 84 5.0 10.0 0.00 0.00 0.00 72 1020.7
20260906191632 68 146 5.0 10.0 0.00 0.00 0.00 72 1020.9
20260906191135 69 109 5.0 12.0 0.00 0.00 0.00 71 1020.9
20260906191110 69 141 5.0 12.0 0.00 0.00 0.00 72 1020.9
20260906190105 69 136 6.0 12.0 0.00 0.00 0.00 71 1020.8
20260906185537 68 90 7.0 12.0 0.00 0.00 0.00 72 1020.9
20260906185035 68 98 7.0 12.0 0.00 0.00 0.00 72 1020.9
20260906184508 68 107 7.0 12.0 0.00 0.00 0.00 72 1020.9
20260906184005 68 128 7.0 13.0 0.00 0.00 0.00 72 1021.0
20260906183439 69 81 6.0 13.0 0.00 0.00 0.00 70 1021.1
20260906182911 69 136 4.0 10.0 0.00 0.00 0.00 70 1021.1
20260906182409 70 130 4.0 8.0 0.00 0.00 0.00 70 1021.1
20260906182115 70 126 4.0 7.0 0.00 0.00 0.00 70 1021.1
20260906181324 70 110 4.0 9.0 0.00 0.00 0.00 70 1021.1
20260906180822 70 121 4.0 9.0 0.00 0.00 0.00 71 1021.2
20260906180325 69 103 4.0 9.0 0.00 0.00 0.00 73 1021.3
20260906175757 68 56 5.0 10.0 0.00 0.00 0.00 73 1021.3
20260906175255 68 96 5.0 10.0 0.00 0.00 0.00 73 1021.4
20260906175000 68 140 5.0 10.0 0.00 0.00 0.00 72 1021.5
20260906174225 68 121 5.0 10.0 0.00 0.00 0.00 72 1021.5
20260906173657 68 117 5.0 10.0 0.00 0.00 0.00 72 1021.5
20260906173155 68 98 5.0 10.0 0.00 0.00 0.00 73 1021.6
20260906173130 68 123 4.0 10.0 0.00 0.00 0.00 72 1021.6
20260906172125 67 127 5.0 10.0 0.00 0.00 0.00 72 1021.7
20260906171829 67 113 5.0 9.0 0.00 0.00 0.00 73 1021.8
20260906171054 67 141 5.0 9.0 0.00 0.00 0.00 72 1021.9
20260906170551 67 151 5.0 10.0 0.00 0.00 0.00 73 1022.0
20260906170048 67 136 5.0 10.0 0.00 0.00 0.00 72 1021.9
20260906165521 67 157 5.0 10.0 0.00 0.00 0.00 72 1022.0
20260906165250 67 133 5.0 10.0 0.00 0.00 0.00 73 1021.9
20260906164453 68 120 4.0 8.0 0.00 0.00 0.00 72 1022.0
20260906164207 67 134 4.0 7.0 0.00 0.00 0.00 73 1022.0
20260906163409 67 137 4.0 8.0 0.00 0.00 0.00 73 1022.0
20260906162846 67 103 5.0 8.0 0.00 0.00 0.00 73 1022.0
20260906162842 67 129 4.0 8.0 0.00 0.00 0.00 73 1022.0
20260906161811 67 101 4.0 8.0 0.00 0.00 0.00 72 1021.9
20260906161309 67 80 4.0 10.0 0.00 0.00 0.00 73 1022.0
20260906160741 67 116 5.0 10.0 0.00 0.00 0.00 73 1022.0
20260906160215 66 126 5.0 9.0 0.00 0.00 0.00 73 1022.0
20260906155652 67 134 4.0 9.0 0.00 0.00 0.00 73 1022.0
20260906155130 67 131 5.0 10.0 0.00 0.00 0.00 72 1022.0
20260906154633 67 98 5.0 10.0 0.00 0.00 0.00 73 1021.9
20260906154107 67 132 5.0 9.0 0.00 0.00 0.00 72 1022.0
20260906153547 67 111 5.0 10.0 0.00 0.00 0.00 73 1021.9
20260906153048 67 105 4.0 10.0 0.00 0.00 0.00 73 1021.9
20260906152526 66 81 4.0 10.0 0.00 0.00 0.00 73 1022.1
20260906152025 66 86 5.0 11.0 0.00 0.00 0.00 74 1022.1
20260906151502 66 92 5.0 11.0 0.00 0.00 0.00 74 1021.9
20260906151000 65 86 5.0 10.0 0.00 0.00 0.00 74 1022.1
20260906150459 65 89 5.0 11.0 0.00 0.00 0.00 74 1022.1
20260906145958 65 115 6.0 11.0 0.00 0.00 0.00 74 1022.2
20260906145440 65 98 6.0 10.0 0.00 0.00 0.00 74 1022.0
20260906144917 65 82 5.0 9.0 0.00 0.00 0.00 74 1022.0
20260906144417 65 112 6.0 11.0 0.00 0.00 0.00 75 1022.1
20260906144136 65 103 5.0 11.0 0.00 0.00 0.00 74 1022.1
20260906143403 65 110 5.0 11.0 0.00 0.00 0.00 74 1022.0
20260906142902 65 84 6.0 12.0 0.00 0.00 0.00 74 1022.1
20260906142402 66 102 5.0 12.0 0.00 0.00 0.00 73 1022.1
20260906141903 66 96 5.0 10.0 0.00 0.00 0.00 73 1022.1
20260906141349 65 100 5.0 10.0 0.00 0.00 0.00 73 1022.1
20260906141343 66 94 5.0 10.0 0.00 0.00 0.00 73 1022.1
20260906140323 65 107 4.0 9.0 0.00 0.00 0.00 73 1022.3
20260906135820 65 88 4.0 8.0 0.00 0.00 0.00 74 1022.3
20260906135322 65 78 4.0 8.0 0.00 0.00 0.00 73 1022.3
20260906135031 65 93 3.0 8.0 0.00 0.00 0.00 74 1022.2
20260906134253 64 42 3.0 8.0 0.00 0.00 0.00 74 1022.2
20260906133753 64 67 3.0 7.0 0.00 0.00 0.00 74 1022.1
20260906133251 64 53 2.0 6.0 0.00 0.00 0.00 74 1022.2
20260906132751 65 78 2.0 6.0 0.00 0.00 0.00 74 1022.4
20260906132521 64 84 3.0 7.0 0.00 0.01 0.00 74 1022.4
20260906131753 64 49 3.0 7.0 0.00 0.01 0.00 73 1022.5
20260906131249 65 58 2.0 5.0 0.00 0.01 0.00 73 1022.4
20260906130724 64 82 1.0 5.0 0.00 0.01 0.00 74 1022.3
20260906130158 64 28 2.0 6.0 0.00 0.01 0.00 74 1022.2
20260906125657 64 49 3.0 6.0 0.00 0.01 0.00 74 1022.2
20260906125128 64 77 2.0 5.0 0.00 0.01 0.00 74 1022.0
20260906124626 64 54 2.0 4.0 0.00 0.01 0.00 75 1022.0
20260906124137 63 67 2.0 4.0 0.00 0.01 0.00 75 1021.8
20260906123620 63 42 1.0 4.0 0.00 0.01 0.00 75 1021.8
20260906123348 63 34 1.0 5.0 0.00 0.01 0.00 76 1021.7
20260906122550 63 43 2.0 6.0 0.00 0.01 0.00 76 1021.7
20260906122311 62 50 2.0 6.0 0.00 0.01 0.00 76 1021.6
20260906121539 62 30 2.0 7.0 0.00 0.01 0.00 77 1021.5
20260906121038 62 70 3.0 7.0 0.00 0.01 0.00 77 1021.5
20260906120534 62 49 3.0 5.0 0.00 0.01 0.00 77 1021.5
20260906120010 61 21 3.0 8.0 0.00 0.01 0.00 77 1021.5
20260906115507 61 73 2.0 8.0 0.00 0.01 0.00 77 1021.4
20260906115004 61 35 2.0 5.0 0.00 0.01 0.00 78 1021.4
20260906114436 61 26 2.0 5.0 0.00 0.01 0.00 78 1021.4
20260906113909 61 48 2.0 5.0 0.00 0.01 0.00 78 1021.5
20260906113406 61 37 2.0 5.0 0.00 0.01 0.00 78 1021.4
20260906112904 60 26 2.0 5.0 0.00 0.01 0.00 79 1021.2
20260906112336 60 17 2.0 5.0 0.00 0.01 0.00 79 1021.2
20260906112105 60 5 1.0 4.0 0.00 0.01 0.00 79 1021.2
20260906111538 60 355 1.0 4.0 0.00 0.01 0.00 80 1021.2
20260906110803 59 17 1.0 4.0 0.00 0.01 0.00 80 1021.1
20260906110238 59 26 1.0 4.0 0.00 0.01 0.00 81 1021.0
20260906105711 59 29 1.0 4.0 0.00 0.01 0.00 81 1020.9
20260906105207 59 34 1.0 3.0 0.00 0.01 0.00 82 1020.8
20260906104642 58 46 1.0 3.0 0.00 0.01 0.00 82 1020.8
20260906104405 58 46 1.0 2.0 0.00 0.01 0.00 82 1020.8
20260906103902 58 46 1.0 2.0 0.00 0.01 0.00 82 1020.8
20260906103105 58 46 1.0 2.0 0.00 0.01 0.00 81 1020.9
20260906102602 58 46 1.0 2.0 0.00 0.01 0.00 81 1020.8
20260906102058 58 46 1.0 2.0 0.00 0.01 0.00 81 1020.9
20260906101555 58 46 1.0 1.0 0.00 0.01 0.00 81 1020.8
20260906101044 58 46 1.0 2.0 0.00 0.01 0.00 81 1020.9
20260906100546 58 46 1.0 2.0 0.00 0.01 0.00 81 1020.9
20260906100019 58 46 1.0 2.0 0.00 0.01 0.00 80 1020.9
20260906095507 59 46 1.0 2.0 0.00 0.01 0.00 80 1020.9
20260906095006 59 49 0.0 2.0 0.00 0.01 0.00 80 1020.9
20260906094504 60 49 0.0 0.0 0.00 0.01 0.00 80 1020.9
20260906093938 60 49 0.0 2.0 0.00 0.01 0.00 80 1020.8
20260906093411 60 49 1.0 2.0 0.00 0.01 0.00 80 1020.8
20260906092907 60 49 1.0 2.0 0.00 0.01 0.00 80 1020.8
20260906092342 60 49 0.0 2.0 0.00 0.01 0.00 80 1020.7
20260906091814 60 49 0.0 0.0 0.00 0.01 0.00 80 1020.7
20260906091313 60 49 0.0 1.0 0.00 0.01 0.00 79 1020.6
20260906090744 60 49 0.0 1.0 0.00 0.01 0.00 78 1020.7
20260906090242 61 49 0.0 2.0 0.00 0.01 0.00 79 1020.6
20260906085948 61 49 0.0 1.0 0.00 0.01 0.00 78 1020.8
20260906085150 62 49 0.0 1.0 0.00 0.01 0.00 78 1020.8
20260906084644 62 49 0.0 1.0 0.00 0.01 0.00 78 1020.8
20260906084142 62 49 0.0 1.0 0.00 0.01 0.00 77 1020.8
20260906083615 62 49 1.0 4.0 0.00 0.01 0.00 77 1020.7
20260906083110 62 49 2.0 4.0 0.00 0.01 0.00 77 1020.8
20260906082544 62 48 1.0 2.0 0.00 0.01 0.00 77 1020.8
20260906082038 62 48 0.0 2.0 0.00 0.01 0.00 77 1020.8
20260906081807 62 48 0.0 3.0 0.00 0.01 0.00 77 1020.8
20260906081008 62 48 1.0 3.0 0.00 0.01 0.00 78 1021.0
20260906080505 62 49 1.0 3.0 0.00 0.01 0.00 78 1021.0
20260906075939 62 49 1.0 3.0 0.00 0.01 0.00 78 1021.2
20260906075436 62 49 0.0 2.0 0.00 0.01 0.00 78 1021.1
20260906074911 63 49 1.0 2.0 0.00 0.01 0.00 78 1021.2
20260906074346 63 49 1.0 3.0 0.00 0.01 0.00 78 1021.3
20260906074342 63 49 1.0 3.0 0.00 0.01 0.00 78 1021.1
20260906073313 63 49 1.0 3.0 0.00 0.01 0.00 78 1021.2
20260906073018 63 52 0.0 3.0 0.00 0.01 0.00 78 1021.3
20260906072245 63 52 1.0 3.0 0.00 0.01 0.00 78 1021.2
20260906071741 63 52 2.0 5.0 0.00 0.01 0.00 79 1021.2
20260906071216 63 52 2.0 5.0 0.00 0.01 0.00 79 1021.3
20260906070655 63 28 2.0 4.0 0.00 0.01 0.00 79 1021.1
20260906070140 63 28 1.0 3.0 0.00 0.01 0.00 79 1021.0
20260906065638 63 30 1.0 3.0 0.00 0.01 0.00 79 1020.7
20260906065345 63 33 0.0 3.0 0.00 0.01 0.00 79 1020.7
20260906064843 63 34 1.0 3.0 0.00 0.01 0.00 80 1020.8
20260906064109 62 34 1.0 3.0 0.00 0.01 0.00 80 1020.8
20260906063610 62 22 1.0 3.0 0.00 0.01 0.00 80 1021.0
20260906063108 62 15 1.0 3.0 0.00 0.01 0.00 80 1020.9
20260906062605 62 16 1.0 2.0 0.00 0.01 0.00 79 1020.6
20260906062103 62 16 1.0 2.0 0.00 0.01 0.00 79 1020.6
20260906061602 63 16 1.0 3.0 0.00 0.01 0.00 79 1020.7
20260906061102 63 16 1.0 3.0 0.00 0.01 0.00 78 1020.8
20260906060602 63 17 1.0 3.0 0.00 0.01 0.00 78 1021.0
20260906060051 63 18 1.0 3.0 0.00 0.01 0.00 78 1020.8
20260906055550 64 19 1.0 4.0 0.00 0.01 0.00 78 1020.7
20260906055033 63 19 1.0 4.0 0.00 0.01 0.00 78 1020.8
20260906054535 63 21 2.0 4.0 0.00 0.01 0.00 78 1020.7
20260906054020 64 23 3.0 5.0 0.00 0.01 0.00 78 1020.8
20260906053518 64 27 2.0 5.0 0.00 0.01 0.00 78 1020.8
20260906052952 64 12 2.0 4.0 0.00 0.01 0.00 78 1020.8
20260906052425 64 38 1.0 3.0 0.00 0.01 0.00 78 1020.9
20260906052133 64 37 1.0 3.0 0.00 0.01 0.00 78 1020.9
20260906051335 64 37 1.0 3.0 0.00 0.01 0.00 78 1020.8
20260906050817 64 15 2.0 4.0 0.00 0.01 0.00 78 1021.0
20260906050316 64 40 2.0 4.0 0.00 0.01 0.00 78 1021.1
20260906045752 64 24 2.0 4.0 0.00 0.01 0.01 77 1021.0
20260906045231 64 32 2.0 4.0 0.00 0.01 0.01 77 1021.1
20260906044730 64 33 1.0 4.0 0.00 0.01 0.01 77 1021.1
20260906044707 64 36 1.0 3.0 0.00 0.01 0.01 77 1021.1
20260906043641 64 36 1.0 3.0 0.00 0.01 0.01 77 1021.0
20260906043141 64 30 1.0 4.0 0.00 0.01 0.01 77 1021.1
20260906042638 64 28 1.0 4.0 0.00 0.01 0.01 77 1021.1
20260906042413 64 27 1.0 4.0 0.00 0.01 0.01 77 1021.2
20260906041616 64 30 2.0 4.0 0.00 0.01 0.01 77 1021.2
20260906041114 64 28 1.0 3.0 0.00 0.01 0.01 77 1021.3
20260906040556 64 44 1.0 4.0 0.00 0.01 0.01 77 1021.2
20260906040055 64 39 2.0 5.0 0.00 0.01 0.01 76 1021.1
20260906035546 64 39 2.0 5.0 0.00 0.01 0.01 76 1021.1
20260906035048 64 5 2.0 5.0 0.00 0.01 0.01 76 1021.0
20260906034528 64 24 2.0 5.0 0.00 0.01 0.01 76 1021.0
20260906034023 64 34 2.0 7.0 0.00 0.01 0.01 75 1021.1
20260906033738 64 42 2.0 7.0 0.00 0.01 0.01 75 1020.9
20260906033008 64 67 2.0 8.0 0.00 0.01 0.01 75 1020.8
20260906032443 65 98 3.0 8.0 0.00 0.01 0.01 75 1020.7
20260906031934 65 82 3.0 8.0 0.00 0.01 0.01 75 1020.8
20260906031434 65 84 3.0 6.0 0.00 0.01 0.01 75 1020.9
20260906030934 65 69 2.0 5.0 0.00 0.01 0.01 75 1020.9
20260906030413 65 74 3.0 6.0 0.00 0.01 0.01 75 1020.9
20260906025911 65 69 3.0 8.0 0.00 0.01 0.01 75 1020.8
20260906025412 65 58 3.0 8.0 0.00 0.01 0.01 75 1020.5
20260906025119 65 53 2.0 7.0 0.00 0.01 0.01 76 1020.5
20260906024348 65 53 2.0 5.0 0.00 0.01 0.01 76 1020.4
20260906023825 64 56 2.0 5.0 0.00 0.01 0.01 76 1020.4
20260906023326 64 69 2.0 6.0 0.00 0.01 0.01 77 1020.1
20260906022826 64 69 2.0 6.0 0.00 0.01 0.01 77 1020.1
20260906022300 64 83 3.0 7.0 0.00 0.01 0.01 77 1020.0
20260906021801 64 49 3.0 7.0 0.00 0.01 0.01 78 1019.9
20260906021235 64 64 2.0 6.0 0.00 0.01 0.01 78 1019.9
20260906020711 64 71 2.0 6.0 0.00 0.01 0.01 78 1020.0
20260906020209 64 32 2.0 6.0 0.00 0.01 0.01 78 1020.0
20260906015707 64 29 3.0 8.0 0.00 0.01 0.01 79 1020.0
20260906015143 64 69 3.0 9.0 0.00 0.01 0.01 79 1019.9
20260906014617 64 58 3.0 9.0 0.00 0.01 0.01 79 1019.6
20260906014051 64 39 2.0 5.0 0.00 0.01 0.01 79 1019.6
20260906013546 64 78 2.0 6.0 0.00 0.01 0.01 79 1019.5
20260906013041 64 57 3.0 6.0 0.00 0.01 0.01 79 1019.6
20260906012517 64 80 3.0 7.0 0.00 0.01 0.01 79 1019.5
20260906011950 64 80 3.0 7.0 0.00 0.01 0.01 79 1019.6
20260906011425 64 64 3.0 7.0 0.00 0.01 0.01 79 1019.7
20260906010920 64 72 3.0 8.0 0.00 0.01 0.01 79 1019.7
20260906010417 64 55 2.0 8.0 0.00 0.01 0.01 79 1019.9
20260906005851 64 55 3.0 6.0 0.00 0.01 0.01 79 1019.7
20260906005323 63 61 4.0 9.0 0.00 0.01 0.01 79 1019.5
20260906004821 63 48 4.0 9.0 0.00 0.01 0.01 79 1019.5
20260906004256 63 61 3.0 7.0 0.00 0.01 0.01 79 1019.3
20260906004001 63 63 3.0 6.0 0.00 0.01 0.01 79 1019.3
20260906003201 63 79 3.0 7.0 0.00 0.01 0.01 80 1019.3
20260906002659 63 18 2.0 5.0 0.00 0.01 0.01 80 1019.4
20260906002133 63 117 3.0 7.0 0.00 0.01 0.01 80 1019.4
20260906001605 63 63 3.0 11.0 0.00 0.01 0.01 80 1019.5
20260906001102 63 67 3.0 11.0 0.00 0.01 0.01 80 1019.7
20260906000537 63 67 4.0 7.0 0.00 0.01 0.01 80 1019.6
20260906000033 63 103 4.0 9.0 0.00 0.01 0.01 80 1019.6
20260905235531 64 82 4.0 9.0 0.00 0.01 0.01 79 1019.7
20260905235004 64 69 4.0 8.0 0.00 0.01 0.01 80 1019.9
20260905234501 64 74 4.0 7.0 0.00 0.01 0.01 79 1019.9
20260905234450 64 84 4.0 9.0 0.00 0.01 0.01 79 1020.1
20260905233451 64 74 4.0 9.0 0.00 0.01 0.01 79 1020.3
20260905232925 64 42 4.0 9.0 0.00 0.01 0.01 79 1020.3
20260905232420 64 96 4.0 8.0 0.00 0.01 0.01 79 1020.0
20260905231855 64 55 4.0 9.0 0.00 0.01 0.01 79 1020.2
20260905231330 64 82 4.0 8.0 0.00 0.01 0.01 79 1020.3
20260905230825 64 112 4.0 9.0 0.00 0.01 0.01 79 1020.3
20260905230323 64 55 3.0 8.0 0.00 0.01 0.01 79 1020.3
20260905225811 65 68 3.0 8.0 0.00 0.01 0.01 79 1020.2
20260905225309 65 80 4.0 8.0 0.00 0.01 0.01 79 1020.2
20260905224742 65 67 4.0 8.0 0.00 0.01 0.01 79 1020.2
20260905224239 65 96 3.0 8.0 0.00 0.01 0.01 79 1020.1
20260905223736 65 88 4.0 8.0 0.00 0.01 0.01 79 1020.2
20260905223505 65 96 4.0 8.0 0.00 0.01 0.01 79 1020.3
20260905222731 65 67 4.0 8.0 0.00 0.01 0.01 78 1020.3
20260905222204 65 96 3.0 8.0 0.00 0.01 0.01 78 1020.4
20260905221701 65 97 3.0 7.0 0.00 0.01 0.01 79 1020.5
20260905221140 65 97 3.0 7.0 0.00 0.01 0.01 79 1020.3
20260905220603 65 92 3.0 7.0 0.00 0.01 0.01 79 1020.3
20260905220100 64 64 4.0 7.0 0.00 0.01 0.01 79 1020.3
20260905215535 64 108 3.0 9.0 0.00 0.01 0.01 79 1020.4
20260905215007 64 103 4.0 9.0 0.00 0.01 0.01 79 1020.5
20260905214505 64 96 3.0 7.0 0.00 0.01 0.01 79 1020.5
20260905213939 64 78 3.0 7.0 0.00 0.01 0.01 79 1020.6
20260905213411 64 107 3.0 6.0 0.00 0.01 0.01 80 1020.6
20260905212909 64 104 3.0 7.0 0.00 0.01 0.01 79 1020.8
20260905212343 64 134 3.0 7.0 0.00 0.01 0.01 79 1020.7
20260905211837 64 101 3.0 7.0 0.00 0.01 0.01 79 1020.8
20260905211334 64 76 4.0 10.0 0.00 0.01 0.01 80 1020.9
20260905210808 64 76 4.0 10.0 0.00 0.01 0.01 79 1020.8
20260905210243 64 116 4.0 9.0 0.00 0.01 0.01 79 1021.0
20260905210217 64 107 3.0 6.0 0.00 0.01 0.01 79 1020.8
20260905205211 64 107 2.0 7.0 0.00 0.01 0.01 79 1020.9
20260905204647 64 131 2.0 7.0 0.00 0.01 0.01 79 1020.9
20260905204350 64 171 3.0 9.0 0.00 0.01 0.01 79 1021.0
20260905203617 64 130 4.0 9.0 0.00 0.01 0.01 79 1020.9